Location: Potomac
(46.8816°N, 113.5795°W)
Time: 14:19:59
(UTC+00:00)

UKube-1 - Pass Details

Date: 27 June 2022
Orbit: 608 x 615 km, 98.4° (Epoch: 18 August)

Event Time Altitude Azimuth Distance (km) Brightness Sun altitude
Rises 04:57:55 0° 22° (NNE) 2,898 ? -11.1°
Reaches altitude 10° 05:00:18 10° 32° (NNE) 1,987 ? -11.4°
Maximum altitude 05:04:12 33° 97° (E) 1,046 ? -11.7°
Enters shadow 05:06:48 18° 151° (SSE) 1,533 ? -12.0°
